Preview of NWS' New Version of Forecast
This preview is not operational and should not be used for support decisions.

Regional Weather Roundup (RWR)

Issued by National Weather Service (NWS)

                            
000
ASUS43 KMKX 200700
RWRWI 

WISCONSIN REGIONAL WEATHER ROUNDUP
NATIONAL WEATHER SERVICE MILWAUKEE/SULLIVAN WI
100 AM CST WED FEB 20 2019

NOTE: "FAIR" INDICATES FEW OR NO CLOUDS BELOW 12,000 FEET WITH NO
SIGNIFICANT WEATHER AND/OR OBSTRUCTIONS TO VISIBILITY.

WIZ001-002-006>008-014>016-023>028-200800-
NORTHWEST WISCONSIN
  
CITY           SKY/WX    TMP DP  RH WIND       PRES   REMARKS
SUPERIOR ARPT  FAIR       1  -4  80 CALM      30.25F                  
ASHLAND        FAIR       8   1  73 CALM      30.28F                  
HAYWARD        FAIR       4  -1  80 N5        30.22F WCI  -5          
SIREN          FAIR      10   2  69 CALM      30.20F                  
CUMBERLAND     FAIR       9   1  72 E7        30.17F WCI  -3          
RICE LAKE      FAIR       4   1  86 NE3       30.22F                  
CHETEK         FAIR       7   1  78 E3        30.21F                  
LADYSMITH      FAIR      10   3  74 E6        30.23F WCI   0          
EAU CLAIRE     NOT AVBL                                               
MENOMONIE      FAIR       6   0  76 CALM      30.20F                  
NEW RICHMOND   MOCLDY    13   4  68 E8        30.17F WCI   1          
OSCEOLA        FAIR      13   6  72 E8        30.21F WCI   2          
$$
 
WIZ003>005-009-010-017-018-200800-
NORTH CENTRAL WISCONSIN
  
CITY           SKY/WX    TMP DP  RH WIND       PRES   REMARKS
MANITOWISH WTR NOT AVBL                                               
ARBOR VITAE    FAIR       5   1  86 CALM      30.22F                  
WOODRUFF       FAIR       5   1  86 CALM      30.22F                  
RHINELANDER    FAIR       6   0  76 CALM      30.23F                  
EAGLE RIVER    FAIR       1  -3  82 CALM      30.24F                  
LAND O LAKES   FAIR       0  -3  85 CALM      30.25F                  
PHILLIPS       FAIR       2  -3  82 CALM      30.23F                  
TOMAHAWK       FAIR       0  -4  85 CALM      30.25F                  
MEDFORD        MOCLDY    11   4  74 E6        30.20F WCI   1          
MERRILL        FAIR       1  -3  83 CALM      30.26F                  
$$
 
WIZ029-030-035-036-043>047-200800-
CENTRAL WISCONSIN
  
CITY           SKY/WX    TMP DP  RH WIND       PRES   REMARKS
WAUSAU         FAIR       9   4  80 SE6       30.25F WCI  -1          
MOSINEE        MOCLDY    14  10  85 E5        30.26F WCI   6          
MARSHFIELD     MOCLDY    15   9  76 E7        30.21F WCI   5          
STEVENS POINT  FAIR      12   8  84 E3        30.29F                  
WAUPACA        CLOUDY    14  10  81 CALM      30.30F                  
WAUTOMA        MOCLDY    16  11  80 NE5       30.28F WCI   9          
WISC RAPIDS    MOCLDY    18   8  65 E6        30.24F WCI  10          
CAMP DOUGLAS   FAIR      19  13  77 SE8       30.22F WCI   9          
$$
 
WIZ011>013-019>022-031-037>040-048>050-200800-
NORTHEAST WISCONSIN
  
CITY           SKY/WX    TMP DP  RH WIND       PRES   REMARKS
ANTIGO         FAIR       4   1  85 CALM      30.25F                  
SHAWANO        FAIR       8   1  73 CALM      30.33F                  
OCONTO         FAIR       3   0  85 CALM      30.36F                  
STURGEON BAY   FAIR      12   7  80 CALM      30.35F                  
GREEN BAY      FAIR      14   8  77 CALM      30.34F                  
MANITOWOC      FAIR      15  11  83 CALM      30.34F                  
APPLETON       MOCLDY    19  10  68 CALM      30.30F                  
CLINTONVILLE   FAIR       9   5  83 CALM      30.32F                  
OSHKOSH        MOCLDY    16  11  80 E5        30.29F WCI   9          
$$
 
WIZ032>034-041-042-053>061-200800-
SOUTHWEST WISCONSIN
  
CITY           SKY/WX    TMP DP  RH WIND       PRES   REMARKS
LA CROSSE      MOCLDY    20  11  68 SE5       30.22F WCI  13          
SPARTA         MOCLDY    19  12  74 CALM      30.23F                  
VIROQUA        CLOUDY    20  16  81 E10       30.17F WCI   9          
BOSCOBEL       LGT SNOW  22  16  78 NE6       30.23F WCI  14          
PRAIRIE DU CHI LGT SNOW  22  18  85 E7        30.20F WCI  14          
PLATTEVILLE    CLOUDY    23  23  99 E12       30.20F WCI  12          
$$

WIZ056-057-062-063-064-067-068-200800-
SOUTH CENTRAL WISCONSIN
  
CITY           SKY/WX    TMP DP  RH WIND       PRES   REMARKS
REEDSBURG      CLOUDY    20  13  75 CALM      30.24F                  
BARABOO/DELLS  CLOUDY    20  13  77 E6        30.24F WCI  12          
LONE ROCK      NOT AVBL                                               
MINERAL POINT  LGT SNOW  25  23  93 E10       30.19F WCI  15          
MADISON        CLOUDY    23  17  78 E8        30.25F WCI  14          
MIDDLETON      CLOUDY    25  19  78 SE7       30.25F WCI  17          
WATERTOWN      CLOUDY    24  19  80 E3        30.26F                  
MONROE         CLOUDY    25  20  81 MISG      30.20F                  
JANESVILLE     CLOUDY    28  23  80 E10       30.24F WCI  19          
$$
 
WIZ051-052-058>065-066-070>072-200800-
SOUTHEAST WISCONSIN
  
CITY           SKY/WX    TMP DP  RH WIND       PRES   REMARKS
MILWAUKEE      CLOUDY    31  21  66 SE9       30.30F WCI  23          
WAUKESHA       CLOUDY    23  19  86 E3        30.28F                  
MILWAUKEE/TIMM CLOUDY    30  19  64 SE7       30.30F WCI  23          
RACINE         CLOUDY    30  21  69 SE14      30.31F WCI  19          
KENOSHA        CLOUDY    31  22  69 E13       30.28F WCI  21          
FOND DU LAC    FAIR      18  13  80 NE6       30.29F WCI  10          
SHEBOYGAN      CLOUDY    18  13  80 CALM      30.31F                  
WEST BEND      CLOUDY    21  18  86 CALM      30.30F                  
JUNEAU         CLOUDY    22  17  78 E3        30.28F                  
$$

LSZ147-162-200800-
LAKE SUPERIOR
  
STATION/POSITION TIME  TEMP    WIND        PRES    WAVE
                       AIR SEA DIR/SP/G            HT/PER
                 (UTC) (F)     (DEG/KT/KT) (MB)    (FT/S)
DEVILS ISLAND    0600   16     210/  8/  9 1027.3F
SAXON HARBOR     0640    6      CALM  /  2 1025.4F
$$
 
LMZ867-665-643>646-200800-
LAKE MICHIGAN
  
STATION/POSITION TIME  TEMP    WIND        PRES    WAVE
                       AIR SEA DIR/SP/G            HT/PER
                 (UTC) (F)     (DEG/KT/KT) (MB)    (FT/S)
NORTHPORT PIER   0640   17      CALM  /  2 1028.1F
KEWAUNEE LAKESHO 0624   13     290/  3/  5 1027.1
SHEBOYGAN LAKESH 0600   24     290/  2/  3 1028.6F
PORT WASHINGTON  0630   31     130/  7/  9 1027.8F
MILWAUKEE LAKESH 0630   31     110/  8/  9   N/A
KENOSHA   LAKESH 0600   31     130/ 12/ 15 1026.8
$$

TC  - TEMPERATURE IN CELSIUS
VSB - VISIBILITY IN STATUTE MILES
WCI - WIND CHILL INDEX
HX  - HEAT INDEX